Wind_Speed
16 16 16 16 17 18 18 19 20 21 21 22 22 23 23 23 24 23 23 23 23 23 23 22 22 23 23 23 23 23 23 23 23 22 22 22 22 21
17 16 16 16 16 16 17 18 18 20 21 21 22 22 23 23 23 24 24 24 24 24 24 24 25 25 25 24 24 25 24 24 24 23 23 23 22 22
17 16 16 16 15 15 16 17 17 18 19 21 22 23 23 23 23 23 24 24 24 24 24 25 25 25 26 25 25 25 25 25 26 25 24 24 23 23
16 16 17 16 17 17 17 17 17 18 19 20 20 22 22 23 23 23 23 24 24 24 25 25 25 26 26 26 25 25 25 25 26 25 25 24 24 25
17 17 17 17 17 18 18 18 19 19 20 20 20 21 21 22 23 24 24 24 24 24 25 25 26 27 27 26 26 26 26 27 26 25 25 26 26 27
18 18 18 18 17 18 18 19 20 20 20 21 21 21 21 22 23 23 24 24 25 26 26 26 26 27 27 27 27 27 27 27 26 26 26 27 27 28
19 18 18 19 19 19 19 19 20 21 21 22 22 22 22 23 23 23 24 24 24 25 26 27 27 27 27 28 27 27 27 27 27 27 27 28 28 28
19 19 19 20 20 19 20 21 22 22 22 22 22 23 23 24 24 25 25 25 25 26 27 27 28 27 27 28 28 28 28 28 28 28 28 28 28 28
20 20 20 21 21 21 21 22 23 23 23 23 23 24 24 24 25 25 25 26 27 28 28 28 28 28 28 28 28 29 29 29 28 28 29 29 29 28
22 21 21 22 23 23 24 24 23 23 23 24 23 24 24 25 25 26 26 26 26 26 27 28 29 29 29 28 28 28 28 28 28 29 29 29 29 28
23 22 22 22 23 23 23 23 24 24 24 25 25 25 25 25 26 26 26 27 28 28 27 28 28 29 29 29 29 28 27 27 27 27 28 28 28 29
23 23 23 23 23 23 23 23 23 24 25 25 25 26 26 26 26 26 26 26 27 27 27 26 27 27 28 28 28 28 27 27 26 27 27 27 28 28
24 24 24 23 23 23 24 24 24 24 24 26 26 26 26 26 26 26 26 26 25 25 25 25 25 26 26 26 26 26 26 26 26 26 26 27 27 27
25 24 24 24 24 24 24 24 24 24 25 25 26 26 26 26 26 25 25 25 25 25 24 24 24 23 23 24 25 25 26 26 27 27 27 27 27 26
25 25 25 25 24 25 25 25 25 25 25 26 26 26 26 26 26 25 25 24 24 24 23 23 24 24 24 24 24 25 26 26 26 26 26 26 26 26
25 25 25 25 25 24 24 25 25 25 25 25 25 25 24 25 25 25 24 24 24 24 24 23 23 23 24 24 24 25 25 25 25 25 25 25 25 26
26 25 25 26 25 25 24 24 25 25 25 26 26 25 24 24 25 25 25 25 24 24 23 23 23 23 23 23 24 25 25 25 25 25 25 25 25 25
27 26 26 25 24 23 23 24 24 24 25 25 26 25 25 24 24 25 25 24 23 23 22 22 23 23 23 24 24 25 25 25 25 25 25 24 24 25
27 26 26 25 24 23 23 23 23 24 25 25 25 25 24 24 24 24 24 24 23 23 23 23 23 23 24 24 24 24 25 25 26 25 25 24 24 24
27 27 25 24 23 23 23 23 24 24 25 26 26 26 25 25 25 24 24 24 24 24 24 24 24 24 25 25 25 25 25 25 26 26 25 25 25 25
27 26 25 24 23 23 24 24 24 25 26 26 26 26 26 25 25 25 25 24 24 24 24 24 24 24 25 26 26 25 25 26 26 26 26 26 26 25
25 25 24 23 23 24 24 24 24 25 25 25 25 26 25 25 25 25 25 24 24 24 24 24 25 25 25 25 25 26 26 25 26 25 25 25 25 25
25 25 24 24 24 23 24 24 23 23 23 24 24 23 23 23 23 23 23 24 24 24 24 25 25 25 25 25 24 24 23 24 24 24 24 24 24 24
Wind_Direction
281 283 281 276 273 270 268 267 265 263 263 261 260 261 261 260 261 261 260 259 261 261 261 260 261 262 263 261 259 259 257 257 257 258 258 258 260 261
287 284 280 277 275 270 266 265 264 263 264 262 261 264 264 263 262 261 261 259 261 261 261 260 260 262 262 263 262 261 258 258 258 259 259 261 262 261
289 285 280 278 275 273 268 266 265 263 264 264 262 262 263 264 263 262 262 261 261 262 262 261 260 261 260 261 262 259 259 259 259 259 260 261 261 262
291 288 282 279 277 275 272 270 268 268 267 265 264 263 263 263 263 262 262 261 261 262 262 261 260 260 259 259 260 259 259 259 258 258 259 260 262 262
290 286 283 282 279 275 274 272 271 271 269 267 265 265 265 263 262 262 262 261 261 261 263 263 262 260 259 260 261 260 260 260 257 258 259 261 262 263
291 286 282 283 281 278 275 274 274 273 272 270 268 266 266 265 262 262 262 262 261 263 265 263 263 262 262 262 262 261 260 260 258 258 259 261 262 263
294 289 283 282 280 278 276 274 274 273 273 272 270 268 267 266 265 265 267 265 264 265 265 265 265 264 262 262 262 261 259 259 260 259 259 260 262 263
297 288 286 284 279 276 275 274 274 273 272 272 270 269 268 267 267 267 269 268 268 267 266 266 265 264 263 262 262 260 258 258 259 258 259 261 262 262
299 293 288 284 280 278 276 275 275 273 272 273 272 270 269 268 267 268 268 268 268 268 267 266 264 262 262 263 262 261 260 260 260 259 260 261 260 262
298 295 290 287 283 280 278 276 276 275 272 271 271 272 271 270 269 267 268 269 269 270 268 266 263 263 262 262 261 259 258 259 261 261 260 260 261 262
296 294 290 289 287 284 282 279 276 274 272 272 272 271 272 272 270 268 267 268 270 269 269 268 265 264 262 262 261 258 257 259 260 261 259 259 260 262
296 294 292 290 287 283 282 280 279 277 273 273 273 272 273 272 270 268 269 269 268 268 268 268 266 264 263 262 260 260 260 261 263 262 260 260 262 263
295 294 293 290 287 286 284 281 280 279 277 276 274 274 273 273 273 271 271 270 268 270 270 270 268 266 265 264 262 262 262 263 264 264 264 265 265 264
295 293 292 291 289 288 286 283 281 279 278 278 277 275 274 274 274 273 273 272 269 268 269 269 268 266 266 265 263 262 261 263 264 266 267 266 265 265
295 294 292 291 290 288 287 285 283 281 280 279 278 276 275 275 274 274 274 273 269 268 266 265 265 264 263 263 262 263 264 265 266 267 268 267 265 264
296 296 295 292 290 288 286 285 283 281 280 279 278 277 277 275 274 274 273 272 271 268 265 264 262 262 264 263 262 262 263 264 266 268 269 267 265 264
297 297 297 295 291 288 286 286 284 281 279 277 277 277 276 274 275 275 272 272 269 268 265 263 262 260 262 264 265 264 264 265 266 268 268 267 266 265
299 298 297 296 293 290 288 286 284 281 279 278 278 276 275 273 274 275 272 270 270 267 265 265 264 261 261 262 265 266 266 267 268 267 265 265 264 265
299 297 296 295 292 290 288 287 285 282 282 281 279 277 275 274 273 272 271 270 270 268 265 265 265 264 264 265 266 269 270 270 270 269 267 265 266 267
300 297 294 293 290 289 288 288 287 285 283 281 280 278 275 274 273 271 270 269 268 268 268 267 266 266 268 269 270 272 272 271 270 269 267 266 265 267
301 299 294 291 290 289 287 287 287 286 284 282 280 280 277 274 273 271 269 268 269 269 267 267 267 267 269 270 272 272 272 271 270 268 266 265 264 265
300 298 295 294 293 291 289 289 288 286 284 283 281 279 277 274 273 272 270 269 269 270 268 267 267 269 270 271 273 273 272 271 270 268 265 264 264 266
298 298 296 294 293 292 292 292 290 287 285 285 283 279 276 274 273 272 272 269 267 269 269 268 269 270 270 271 272 273 271 270 268 266 265 265 264 265
Height
5833 5832 5831 5830 5829 5829 5829 5829 5830 5830 5831 5831 5832 5832 5833 5834 5834 5835 5836 5836 5837 5837 5838 5839 5839 5840 5840 5841 5842 5842 5843 5844 5845 5845 5846 5846 5847 5848
5828 5827 5826 5825 5825 5824 5824 5824 5824 5824 5825 5825 5826 5826 5827 5828 5828 5828 5829 5830 5830 5831 5832 5833 5833 5833 5834 5835 5835 5836 5836 5837 5838 5839 5840 5840 5841 5841
5824 5822 5821 5821 5820 5819 5819 5819 5819 5819 5819 5819 5820 5820 5821 5821 5822 5822 5823 5823 5824 5825 5825 5826 5827 5827 5827 5828 5828 5829 5830 5831 5832 5832 5833 5833 5834 5835
5819 5818 5817 5816 5815 5815 5814 5814 5814 5814 5814 5814 5814 5814 5814 5815 5815 5816 5816 5817 5818 5818 5818 5819 5819 5820 5820 5821 5821 5822 5823 5823 5825 5826 5826 5827 5827 5828
5815 5813 5812 5811 5810 5810 5809 5809 5809 5809 5809 5808 5808 5808 5808 5808 5809 5809 5810 5810 5811 5811 5812 5812 5812 5813 5813 5814 5814 5815 5815 5816 5817 5818 5819 5820 5821 5821
5810 5808 5807 5806 5805 5804 5804 5804 5803 5803 5803 5803 5802 5802 5802 5802 5802 5803 5803 5803 5804 5804 5804 5804 5805 5805 5806 5807 5807 5807 5808 5809 5809 5810 5811 5812 5813 5814
5805 5803 5802 5801 5800 5799 5799 5798 5798 5797 5797 5797 5796 5796 5796 5796 5796 5796 5796 5796 5796 5797 5797 5797 5797 5798 5798 5799 5799 5800 5800 5801 5802 5803 5803 5804 5805 5806
5800 5798 5796 5795 5794 5793 5792 5792 5792 5791 5791 5790 5790 5790 5790 5790 5790 5790 5790 5790 5789 5790 5790 5790 5790 5790 5791 5791 5792 5792 5793 5793 5794 5795 5795 5796 5797 5798
5795 5792 5791 5789 5788 5787 5786 5785 5785 5784 5784 5784 5783 5783 5783 5783 5783 5783 5782 5782 5782 5781 5781 5782 5782 5782 5783 5783 5783 5784 5784 5785 5786 5787 5787 5788 5789 5789
5789 5787 5785 5783 5782 5781 5780 5779 5778 5778 5777 5777 5776 5776 5775 5775 5775 5775 5774 5774 5774 5773 5773 5773 5773 5774 5774 5774 5775 5775 5776 5777 5777 5778 5779 5780 5780 5781
5783 5781 5779 5777 5776 5774 5773 5772 5771 5770 5770 5769 5769 5768 5768 5768 5767 5767 5767 5767 5766 5766 5765 5765 5765 5765 5765 5766 5767 5767 5768 5769 5770 5770 5771 5771 5772 5772
5777 5774 5772 5771 5769 5767 5766 5765 5764 5763 5762 5762 5761 5761 5760 5760 5759 5759 5759 5758 5758 5757 5757 5757 5756 5757 5757 5758 5758 5759 5760 5761 5762 5762 5763 5763 5764 5764
5770 5768 5766 5764 5762 5761 5759 5758 5757 5756 5755 5754 5754 5753 5753 5752 5752 5751 5750 5750 5750 5749 5749 5749 5749 5749 5749 5750 5750 5751 5752 5753 5754 5754 5755 5755 5755 5755
5763 5761 5759 5757 5755 5754 5752 5751 5749 5748 5747 5746 5746 5745 5744 5744 5743 5743 5742 5742 5741 5741 5741 5741 5741 5742 5742 5742 5743 5744 5744 5745 5746 5746 5746 5746 5747 5746
5756 5754 5752 5750 5748 5747 5745 5743 5742 5741 5740 5739 5738 5737 5737 5736 5736 5735 5734 5734 5734 5734 5734 5734 5734 5735 5735 5735 5736 5736 5737 5737 5737 5738 5738 5738 5738 5738
5749 5747 5745 5742 5741 5739 5738 5736 5735 5733 5732 5731 5730 5729 5729 5728 5728 5727 5727 5726 5726 5726 5726 5726 5727 5727 5727 5728 5728 5729 5729 5729 5729 5729 5729 5729 5729 5729
5742 5740 5738 5735 5733 5731 5730 5728 5727 5725 5724 5723 5722 5722 5721 5721 5720 5719 5719 5719 5718 5719 5719 5719 5719 5720 5720 5720 5720 5721 5721 5721 5721 5721 5721 5721 5721 5721
5735 5732 5730 5728 5726 5724 5722 5720 5719 5717 5716 5715 5714 5713 5713 5712 5712 5712 5711 5711 5711 5711 5711 5711 5712 5712 5713 5713 5713 5713 5712 5712 5712 5712 5712 5712 5713 5713
5728 5725 5723 5721 5718 5716 5714 5712 5711 5709 5708 5707 5706 5705 5705 5704 5704 5704 5703 5703 5703 5703 5703 5703 5704 5704 5705 5705 5705 5705 5704 5704 5704 5704 5704 5704 5704 5705
5720 5717 5715 5713 5711 5709 5707 5705 5703 5702 5700 5699 5698 5697 5696 5696 5696 5695 5695 5695 5695 5695 5695 5695 5695 5696 5696 5697 5697 5696 5695 5695 5695 5695 5695 5695 5696 5696
5712 5710 5707 5705 5703 5701 5699 5697 5695 5694 5692 5691 5690 5689 5688 5687 5687 5687 5687 5687 5687 5687 5687 5687 5687 5688 5687 5687 5688 5687 5686 5686 5685 5685 5686 5686 5686 5687
5704 5702 5700 5698 5696 5694 5692 5690 5688 5686 5684 5683 5681 5680 5679 5679 5679 5678 5678 5678 5678 5679 5679 5679 5679 5679 5679 5679 5678 5678 5677 5676 5676 5676 5676 5677 5677 5678
5697 5694 5692 5690 5688 5686 5684 5682 5680 5678 5676 5675 5673 5672 5671 5671 5670 5670 5670 5670 5670 5670 5670 5670 5670 5670 5670 5670 5669 5669 5668 5668 5667 5667 5668 5668 5669 5670